Location: Coopersdale
(40.3556°N, 78.9372°W)
Time: 15:09:09
(UTC+00:00)

Courier 1B Rocket - All Passes

Search period start: 25 January 2021 00:00
Search period end: 04 February 2021 00:00
Orbit: 920 x 1202 km, 28.2° (Epoch: 25 January)

Date Brightness Start Highest point End Pass type
(mag) Time Alt. Az. Time Alt. Az. Time Alt. Az.
25 Jan - 10:04:42 10° S 10:07:25 13° SSE 10:10:11 10° SE visible
25 Jan - 11:54:26 10° SW 11:59:50 26° SSE 12:05:32 10° ESE visible
25 Jan - 13:46:38 10° WSW 13:52:36 31° S 13:58:55 10° SE daylight
25 Jan - 15:40:01 10° WSW 15:45:26 22° SSW 15:51:02 10° SSE daylight
26 Jan - 10:54:13 10° SSW 10:59:01 22° SSE 11:04:03 10° ESE visible
26 Jan - 12:45:53 10° SW 12:51:40 30° S 12:57:49 10° ESE daylight
26 Jan - 14:38:51 10° WSW 14:44:29 26° SSW 14:50:25 10° SE daylight
26 Jan - 16:33:55 10° SW 16:37:11 13° SSW 16:40:30 10° S daylight
27 Jan - 09:54:21 10° SSW 09:58:17 17° SSE 10:02:21 10° ESE visible
27 Jan - 11:45:18 10° SW 11:50:48 28° S 11:56:37 10° ESE visible
27 Jan - 13:37:52 10° WSW 13:43:34 28° S 13:49:36 10° SE daylight
27 Jan - 15:31:52 10° WSW 15:36:18 17° SSW 15:40:52 10° SSE daylight
28 Jan - 08:55:14 10° S 08:57:36 12° SSE 09:00:00 10° SE visible
28 Jan - 10:44:53 10° SW 10:49:59 25° SSE 10:55:20 10° ESE visible
28 Jan - 12:37:03 10° WSW 12:42:40 29° S 12:48:37 10° SE daylight
28 Jan - 14:30:25 10° WSW 14:35:25 21° SSW 14:40:38 10° SSE daylight
29 Jan - 09:44:40 10° SSW 09:49:13 21° SSE 09:53:56 10° ESE visible
29 Jan - 11:36:20 10° SW 11:41:48 29° S 11:47:34 10° ESE visible
29 Jan - 13:29:16 10° WSW 13:34:31 24° SSW 13:40:04 10° SE daylight
29 Jan - 15:24:34 10° SW 15:27:10 12° SSW 15:29:48 10° S daylight
30 Jan - 08:44:48 10° SSW 08:48:31 16° SSE 08:52:19 10° ESE visible
30 Jan - 10:35:46 10° SW 10:40:59 27° S 10:46:27 10° ESE visible
30 Jan - 12:28:19 10° WSW 12:33:40 26° S 12:39:19 10° SE daylight
30 Jan - 14:22:23 10° SW 14:26:19 16° SSW 14:30:23 10° SSE daylight
31 Jan - 07:45:37 10° S 07:47:50 12° SSE 07:50:04 10° SE visible
31 Jan - 09:35:20 10° SW 09:40:14 24° SSE 09:45:16 10° ESE visible
31 Jan - 11:27:31 10° WSW 11:32:50 28° S 11:38:25 10° SE visible
31 Jan - 13:20:55 10° WSW 13:25:29 19° SSW 13:30:15 10° SSE daylight
01 Feb - 08:35:04 10° SSW 08:39:29 20° SSE 08:43:59 10° ESE visible
01 Feb - 10:26:48 10° SW 10:32:02 28° S 10:37:28 10° ESE visible
01 Feb - 12:19:47 10° WSW 12:24:40 23° SSW 12:29:47 10° SE daylight
01 Feb - 14:15:37 10° SW 14:17:13 11° SSW 14:18:50 10° S daylight
02 Feb - 07:35:06 10° SSW 07:38:47 16° SSE 07:42:29 10° SE visible
02 Feb - 09:26:11 10° SW 09:31:15 26° S 09:36:27 10° ESE visible
02 Feb - 11:18:49 10° WSW 11:23:52 25° S 11:29:08 10° SE visible
02 Feb - 13:13:02 10° SW 13:16:26 14° SSW 13:19:55 10° S daylight
03 Feb - 06:35:45 10° S 06:38:06 12° SSE 06:40:27 10° SE night (unlit)
03 Feb - 08:25:41 10° SW 08:30:31 24° S 08:35:23 10° ESE visible
03 Feb - 10:17:57 10° WSW 10:23:05 27° S 10:28:22 10° SE visible
03 Feb - 12:11:30 10° WSW 12:15:39 18° SSW 12:19:58 10° SSE daylight
